,,Stat6,,Stat2,,Stat8,,Stat9,,Stat10,,Wind1,,Wind1,
time,status,PA1M_AVG,status,PR1M_SUM,status,RH1M_AVG,status,SR1M_AVG,status,TA1M_AVG,status,W1dAve1m,status,W1sAve1m,
2005-07-26, 00:00:00,VALID,919.315,VALID,0,VALID,100,VALID,-0.0169808,VALID,19.7171,VALID,29,VALID,0.444041,
2005-07-26, 00:01:00,VALID,919.321,VALID,0,VALID,100,VALID,0,VALID,19.6975,VALID,1,VALID,0.337326,
2005-07-26, 00:02:00,VALID,919.325,VALID,0,VALID,100,VALID,0.0169808,VALID,19.6851,VALID,1,VALID,0.460156,
2005-07-26, 00:03:00,VALID,919.32,VALID,0,VALID,100,VALID,0.0169808,VALID,19.6843,VALID,9,VALID,0.539063,
2005-07-26, 00:04:00,VALID,919.355,VALID,0,VALID,100,VALID,0,VALID,19.7007,VALID,7,VALID,0.492188,
2005-07-26, 00:05:01,VALID,919.371,VALID,0,VALID,100,VALID,0,VALID,19.7171,VALID,3,VALID,0.0795785,
2005-07-26, 00:06:00,VALID,919.33,VALID,0,VALID,100,VALID,0.0169808,VALID,19.7002,VALID,3,VALID,0.139291,
2005-07-26, 00:07:00,VALID,919.325,VALID,0,VALID,100,VALID,0,VALID,19.6977,VALID,3,VALID,0.281994,
2005-07-26, 00:08:00,VALID,919.282,VALID,0,VALID,100,VALID,0,VALID,19.6682,VALID,117,VALID,0.396802,
2005-07-26, 00:09:01,VALID,919.296,VALID,0,VALID,100,VALID,0.0169808,VALID,19.6843,VALID,18,VALID,1.08168,
2005-07-26, 00:10:00,VALID,919.257,VALID,0,VALID,100,VALID,0,VALID,19.6977,VALID,32,VALID,0.876817,
2005-07-26, 00:11:00,VALID,919.245,VALID,0,VALID,100,VALID,0,VALID,19.7037,VALID,24,VALID,0.554688,
2005-07-26, 00:12:00,VALID,919.243,VALID,0,VALID,100,VALID,0.0169808,VALID,19.7199,VALID,19,VALID,0.260099,
2005-07-26, 00:13:00,VALID,919.263,VALID,0,VALID,100,VALID,-0.0679233,VALID,19.7082,VALID,273,VALID,0.43941,
2005-07-26, 00:14:00,VALID,919.272,VALID,0,VALID,100,VALID,-0.101885,VALID,19.6796,VALID,281,VALID,0.98165,
2005-07-26, 00:15:00,VALID,919.281,VALID,0,VALID,100,VALID,-0.0849042,VALID,19.6828,VALID,12,VALID,1.21911,
2005-07-26, 00:16:00,VALID,919.284,VALID,0,VALID,100,VALID,-0.0339617,VALID,19.7057,VALID,23,VALID,1.70469,
2005-07-26, 00:17:00,VALID,919.295,VALID,0,VALID,100,VALID,-0.101885,VALID,19.7022,VALID,4,VALID,1.27992,
2005-07-26, 00:18:00,VALID,919.287,VALID,0,VALID,100,VALID,-0.0849042,VALID,19.6893,VALID,7,VALID,1.04501,
2005-07-26, 00:19:00,VALID,919.271,VALID,0,VALID,100,VALID,-0.101885,VALID,19.6893,VALID,22,VALID,1.17871,
2005-07-26, 00:20:01,VALID,919.272,VALID,0,VALID,100,VALID,-0.0509425,VALID,19.689,VALID,13,VALID,1.04078,
2005-07-26, 00:21:01,VALID,919.271,VALID,0,VALID,100,VALID,-0.0849042,VALID,19.657,VALID,8,VALID,0.749628,
2005-07-26, 00:22:00,VALID,919.266,VALID,0,VALID,100,VALID,-0.0849042,VALID,19.6473,VALID,14,VALID,0.683894,
2005-07-26, 00:23:00,VALID,919.257,VALID,0,VALID,100,VALID,-0.101885,VALID,19.6341,VALID,350,VALID,0.884527,
2005-07-26, 00:24:00,VALID,919.255,VALID,0,VALID,100,VALID,-0.101885,VALID,19.6247,VALID,6,VALID,0.967152,
2005-07-26, 00:25:00,VALID,919.248,VALID,0,VALID,100,VALID,-0.101885,VALID,19.6245,VALID,16,VALID,1.19368,
2005-07-26, 00:26:00,VALID,919.241,VALID,0,VALID,100,VALID,-0.0679233,VALID,19.6446,VALID,26,VALID,1.13486,
2005-07-26, 00:27:00,VALID,919.24,VALID,0,VALID,100,VALID,-0.0679233,VALID,19.6441,VALID,20,VALID,0.554865,
2005-07-26, 00:28:01,VALID,919.243,VALID,0,VALID,100,VALID,-0.0679233,VALID,19.6503,VALID,14,VALID,0.138148,
2005-07-26, 00:29:00,VALID,919.228,VALID,0,VALID,100,VALID,-0.0509425,VALID,19.6535,VALID,14,VALID,0.31577,
2005-07-26, 00:30:00,VALID,919.201,VALID,0,VALID,100,VALID,-0.0679233,VALID,19.66,VALID,19,VALID,1.05541,
2005-07-26, 00:31:00,VALID,919.177,VALID,0,VALID,100,VALID,-0.0339617,VALID,19.6727,VALID,26,VALID,0.803779,
2005-07-26, 00:32:00,VALID,919.144,VALID,0,VALID,100,VALID,-0.0679233,VALID,19.692,VALID,18,VALID,1.21094,
2005-07-26, 00:33:00,VALID,919.135,VALID,0,VALID,100,VALID,-0.0509425,VALID,19.6856,VALID,15,VALID,1.14958,
2005-07-26, 00:34:00,VALID,919.149,VALID,0,VALID,100,VALID,-0.0339617,VALID,19.6861,VALID,30,VALID,0.5266,
2005-07-26, 00:35:01,VALID,919.149,VALID,0,VALID,100,VALID,-0.0509425,VALID,19.6821,VALID,30,VALID,0.0792411,
2005-07-26, 00:36:01,VALID,919.14,VALID,0,VALID,100,VALID,-0.0849042,VALID,19.6794,VALID,29,VALID,0.183771,
2005-07-26, 00:37:00,VALID,919.129,VALID,0,VALID,100,VALID,-0.101885,VALID,19.6568,VALID,17,VALID,0.440848,
2005-07-26, 00:38:00,VALID,919.123,VALID,0,VALID,100,VALID,-0.0679233,VALID,19.6508,VALID,21,VALID,0.448946,
2005-07-26, 00:39:00,VALID,919.103,VALID,0,VALID,100,VALID,-0.0509425,VALID,19.6438,VALID,37,VALID,0.456745,
2005-07-26, 00:40:00,VALID,919.075,VALID,0,VALID,100,VALID,-0.101885,VALID,19.6473,VALID,27,VALID,0.632254,
2005-07-26, 00:41:00,VALID,919.055,VALID,0,VALID,100,VALID,-0.101885,VALID,19.6374,VALID,2,VALID,0.924964,
2005-07-26, 00:42:00,VALID,919.041,VALID,0,VALID,100,VALID,-0.0679233,VALID,19.6471,VALID,32,VALID,0.477706,
2005-07-26, 00:43:00,VALID,919.014,VALID,0,VALID,100,VALID,0.0169808,VALID,19.6332,VALID,72,VALID,0.304142,
2005-07-26, 00:44:00,VALID,919.012,VALID,0,VALID,100,VALID,0.0339617,VALID,19.623,VALID,118,VALID,0.0349609,
2005-07-26, 00:45:00,VALID,919.003,VALID,0,VALID,100,VALID,0.0169808,VALID,19.6101,VALID,118,VALID,0.28196,
2005-07-26, 00:46:01,VALID,918.994,VALID,0,VALID,100,VALID,0,VALID,19.62,VALID,118,VALID,0.00985863,
2005-07-26, 00:47:01,VALID,918.994,VALID,0,VALID,100,VALID,0,VALID,19.6232,VALID,113,VALID,0.0301599,
2005-07-26, 00:48:01,VALID,918.978,VALID,0,VALID,100,VALID,0.0339617,VALID,19.6364,VALID,135,VALID,0.393821,
2005-07-26, 00:49:00,VALID,918.962,VALID,0,VALID,100,VALID,0.0169808,VALID,19.6237,VALID,167,VALID,0.224432,
2005-07-26, 00:50:01,VALID,918.944,VALID,0,VALID,100,VALID,0,VALID,19.6165,VALID,110,VALID,0.263494,
2005-07-26, 00:51:00,VALID,918.919,VALID,0,VALID,100,VALID,0.0339617,VALID,19.6195,VALID,27,VALID,0.0240385,
2005-07-26, 00:52:00,VALID,918.879,VALID,0,VALID,100,VALID,0.0339617,VALID,19.6265,VALID,28,VALID,0.00818452,
2005-07-26, 00:53:00,VALID,918.862,VALID,0,VALID,100,VALID,0.0169808,VALID,19.6205,VALID,40,VALID,0.105283,
2005-07-26, 00:54:00,VALID,918.843,VALID,0,VALID,100,VALID,0.0169808,VALID,19.6133,VALID,36,VALID,0.0564024,
2005-07-26, 00:55:00,VALID,918.812,VALID,0,VALID,100,VALID,0.0169808,VALID,19.6165,VALID,34,VALID,0.104725,
2005-07-26, 00:56:00,VALID,918.783,VALID,0,VALID,100,VALID,0.0169808,VALID,19.6267,VALID,34,VALID,0.0970982,
2005-07-26, 00:57:00,VALID,918.769,VALID,0,VALID,100,VALID,0,VALID,19.6006,VALID,34,VALID,0.0145089,
2005-07-26, 00:58:00,VALID,918.74,VALID,0,VALID,100,VALID,-0.0509425,VALID,19.5882,VALID,34,VALID,0.0428779,
2005-07-26, 00:59:01,VALID,918.7,VALID,0,VALID,100,VALID,-0.0509425,VALID,19.6086,VALID,34,VALID,0.0190304,
2005-07-26, 01:00:00,VALID,918.695,VALID,0,VALID,100,VALID,-0.0679233,VALID,19.5949,VALID,34,VALID,0.0748857,
2005-07-26, 01:01:00,VALID,918.662,VALID,0,VALID,100,VALID,-0.0509425,VALID,19.5954,VALID,32,VALID,0.27474,
2005-07-26, 01:02:00,VALID,918.646,VALID,0,VALID,100,VALID,-0.0509425,VALID,19.5696,VALID,8,VALID,0.217862,
2005-07-26, 01:03:00,VALID,918.614,VALID,0,VALID,100,VALID,-0.0849042,VALID,19.5474,VALID,293,VALID,1.04545,
2005-07-26, 01:04:01,VALID,918.607,VALID,0,VALID,100,VALID,-0.0849042,VALID,19.4953,VALID,289,VALID,0.401105,
2005-07-26, 01:05:01,VALID,918.588,VALID,0,VALID,100,VALID,-0.0679233,VALID,19.4988,VALID,262,VALID,0.574124,
2005-07-26, 01:06:00,VALID,918.583,VALID,0,VALID,100,VALID,-0.0849042,VALID,19.4786,VALID,262,VALID,0.299219,
2005-07-26, 01:07:00,VALID,918.553,VALID,0,VALID,100,VALID,-0.0509425,VALID,19.4953,VALID,277,VALID,0.280717,
2005-07-26, 01:08:01,VALID,918.536,VALID,0,VALID,100,VALID,-0.0849042,VALID,19.4916,VALID,278,VALID,0.0974702,
2005-07-26, 01:09:00,VALID,918.531,VALID,0,VALID,100,VALID,-0.0849042,VALID,19.5281,VALID,277,VALID,0,
2005-07-26, 01:10:00,VALID,918.524,VALID,0,VALID,100,VALID,-0.0849042,VALID,19.5214,VALID,279,VALID,0.164063,
2005-07-26, 01:11:01,VALID,918.521,VALID,0,VALID,100,VALID,-0.0849042,VALID,19.5278,VALID,338,VALID,0.267857,
2005-07-26, 01:12:01,VALID,918.497,VALID,0,VALID,100,VALID,-0.0679233,VALID,19.5179,VALID,24,VALID,0.536337,
2005-07-26, 01:13:00,VALID,918.5,VALID,0,VALID,100,VALID,0,VALID,19.5333,VALID,23,VALID,0.505145,
2005-07-26, 01:14:00,VALID,918.507,VALID,0,VALID,100,VALID,0.0339617,VALID,19.5363,VALID,11,VALID,0.373365,
2005-07-26, 01:15:00,VALID,918.514,VALID,0,VALID,100,VALID,0,VALID,19.5231,VALID,1,VALID,0.434832,
2005-07-26, 01:16:01,VALID,918.513,VALID,0,VALID,100,VALID,0,VALID,19.5326,VALID,1,VALID,0.310742,
2005-07-26, 01:17:01,VALID,918.494,VALID,0,VALID,100,VALID,0.0509425,VALID,19.5422,VALID,7,VALID,0.902616,
2005-07-26, 01:18:00,VALID,918.451,VALID,0,VALID,100,VALID,0.0339617,VALID,19.5229,VALID,33,VALID,0.859375,
2005-07-26, 01:19:00,VALID,918.466,VALID,0,VALID,100,VALID,0.0169808,VALID,19.5199,VALID,27,VALID,0.741602,
2005-07-26, 01:20:00,VALID,918.488,VALID,0,VALID,100,VALID,0.0169808,VALID,19.5226,VALID,10,VALID,0.431504,
2005-07-26, 01:21:00,VALID,918.477,VALID,0,VALID,100,VALID,0.0169808,VALID,19.5226,VALID,12,VALID,0.691778,
2005-07-26, 01:22:00,VALID,918.485,VALID,0,VALID,100,VALID,0.0169808,VALID,19.5455,VALID,357,VALID,0.628606,
2005-07-26, 01:23:00,VALID,918.465,VALID,0,VALID,100,VALID,0.0339617,VALID,19.536,VALID,11,VALID,0.412464,
2005-07-26, 01:24:00,VALID,918.508,VALID,0,VALID,100,VALID,0.0169808,VALID,19.5226,VALID,358,VALID,0.391959,
2005-07-26, 01:25:00,VALID,918.516,VALID,0,VALID,100,VALID,0,VALID,19.536,VALID,9,VALID,0.56543,
2005-07-26, 01:26:00,VALID,918.502,VALID,0,VALID,100,VALID,0.0679233,VALID,19.5517,VALID,328,VALID,0.991235,
2005-07-26, 01:27:00,VALID,918.539,VALID,0,VALID,100,VALID,0.0509425,VALID,19.536,VALID,255,VALID,0.460938,
2005-07-26, 01:28:00,VALID,918.511,VALID,0,VALID,100,VALID,0.0509425,VALID,19.5422,VALID,8,VALID,1.02876,
2005-07-26, 01:29:01,VALID,918.513,VALID,0,VALID,100,VALID,0.0339617,VALID,19.5651,VALID,24,VALID,0.941667,
2005-07-26, 01:30:01,VALID,918.502,VALID,0,VALID,100,VALID,0.0509425,VALID,19.5812,VALID,19,VALID,0.412202,
2005-07-26, 01:31:00,VALID,918.491,VALID,0,VALID,100,VALID,0.0169808,VALID,19.5912,VALID,29,VALID,0.597842,
2005-07-26, 01:32:00,VALID,918.509,VALID,0,VALID,100,VALID,0.0679233,VALID,19.581,VALID,25,VALID,0.457849,
2005-07-26, 01:33:00,VALID,918.509,VALID,0,VALID,100,VALID,0.0339617,VALID,19.5907,VALID,52,VALID,0.307566,
2005-07-26, 01:34:01,VALID,918.561,VALID,0,VALID,100,VALID,0.101885,VALID,19.5842,VALID,170,VALID,0.373785,
2005-07-26, 01:35:00,VALID,918.526,VALID,0,VALID,100,VALID,0.0509425,VALID,19.5845,VALID,153,VALID,1.18274,
2005-07-26, 01:36:01,VALID,918.542,VALID,0.4,VALID,100,VALID,0.0339617,VALID,19.6038,VALID,18,VALID,0.56032,
2005-07-26, 01:37:00,VALID,918.506,VALID,0,VALID,100,VALID,0,VALID,19.6108,VALID,89,VALID,0.94215,
2005-07-26, 01:38:00,VALID,918.502,VALID,0,VALID,100,VALID,0.0169808,VALID,19.5947,VALID,300,VALID,1.2064,
2005-07-26, 01:39:01,VALID,918.526,VALID,0,VALID,100,VALID,0.0169808,VALID,19.5882,VALID,321,VALID,1.25127,
2005-07-26, 01:40:00,VALID,918.505,VALID,0,VALID,100,VALID,0.0169808,VALID,19.5586,VALID,227,VALID,1.71348,
2005-07-26, 01:41:01,VALID,918.57,VALID,0,VALID,100,VALID,0.0509425,VALID,19.536,VALID,232,VALID,1.35738,
2005-07-26, 01:42:01,VALID,918.544,VALID,0,VALID,100,VALID,0,VALID,19.5067,VALID,20,VALID,1.2138,
2005-07-26, 01:43:00,VALID,918.567,VALID,0.2,VALID,100,VALID,0.0169808,VALID,19.4752,VALID,88,VALID,1.95234,
2005-07-26, 01:44:01,VALID,918.542,VALID,0,VALID,100,VALID,0,VALID,19.4682,VALID,25,VALID,2.18886,
2005-07-26, 01:45:01,VALID,918.579,VALID,0,VALID,100,VALID,0.0169808,VALID,19.4133,VALID,9,VALID,1.37767,
2005-07-26, 01:46:00,VALID,918.594,VALID,0,VALID,100,VALID,0.0339617,VALID,19.388,VALID,6,VALID,1.24787,
2005-07-26, 01:47:01,VALID,918.557,VALID,0,VALID,100,VALID,0,VALID,19.3366,VALID,236,VALID,2.7846,
2005-07-26, 01:48:00,VALID,918.599,VALID,0,VALID,100,VALID,0.0169808,VALID,19.2817,VALID,358,VALID,1.99637,
2005-07-26, 01:49:01,VALID,918.616,VALID,0,VALID,100,VALID,0,VALID,19.2941,VALID,360,VALID,1.06231,
2005-07-26, 01:50:01,VALID,918.625,VALID,0,VALID,100,VALID,0.0169808,VALID,19.2683,VALID,27,VALID,1.76776,
2005-07-26, 01:51:00,VALID,918.65,VALID,0,VALID,100,VALID,0,VALID,19.2653,VALID,11,VALID,1.19661,
2005-07-26, 01:52:01,VALID,918.652,VALID,0,VALID,100,VALID,0.0169808,VALID,19.2394,VALID,296,VALID,1.11509,
2005-07-26, 01:53:01,VALID,918.627,VALID,0,VALID,100,VALID,0.0169808,VALID,19.1937,VALID,8,VALID,2.33315,
2005-07-26, 01:54:01,VALID,918.668,VALID,0,VALID,100,VALID,0,VALID,19.1523,VALID,224,VALID,1.00149,
2005-07-26, 01:55:01,VALID,918.64,VALID,0,VALID,100,VALID,0,VALID,19.1456,VALID,174,VALID,0.998326,
2005-07-26, 01:56:01,VALID,918.646,VALID,0,VALID,100,VALID,0.0679233,VALID,19.1137,VALID,247,VALID,0.911395,
2005-07-26, 01:57:01,VALID,918.657,VALID,0,VALID,100,VALID,0.0339617,VALID,19.0971,VALID,52,VALID,0.635831,
2005-07-26, 01:58:01,VALID,918.654,VALID,0,VALID,100,VALID,0.0169808,VALID,19.0879,VALID,93,VALID,0.445135,
2005-07-26, 01:59:01,VALID,918.644,VALID,0,VALID,100,VALID,0.0339617,VALID,19.0589,VALID,308,VALID,1.08067,
2005-07-26, 02:00:01,VALID,918.639,VALID,0,VALID,100,VALID,0,VALID,19.039,VALID,19,VALID,1.19863,
2005-07-26, 02:01:00,VALID,918.615,VALID,0,VALID,100,VALID,0.0169808,VALID,19.0266,VALID,25,VALID,1.55269,
2005-07-26, 02:02:01,VALID,918.626,VALID,0,VALID,100,VALID,0.0509425,VALID,19.0032,VALID,353,VALID,1.25893,
2005-07-26, 02:03:00,VALID,918.628,VALID,0,VALID,100,VALID,0.0339617,VALID,19.0102,VALID,339,VALID,0.128452,
2005-07-26, 02:04:01,VALID,918.632,VALID,0,VALID,100,VALID,0,VALID,18.9908,VALID,34,VALID,0.163194,
2005-07-26, 02:05:01,VALID,918.64,VALID,0,VALID,100,VALID,0,VALID,18.9848,VALID,42,VALID,0.341388,
2005-07-26, 02:06:01,VALID,918.654,VALID,0,VALID,100,VALID,0.0509425,VALID,18.9977,VALID,12,VALID,0.786659,
2005-07-26, 02:07:01,VALID,918.648,VALID,0,VALID,100,VALID,0.0169808,VALID,18.9816,VALID,5,VALID,1.34414,
2005-07-26, 02:08:01,VALID,918.665,VALID,0,VALID,100,VALID,0.0169808,VALID,18.9491,VALID,14,VALID,1.16134,
2005-07-26, 02:09:01,VALID,918.655,VALID,0,VALID,100,VALID,0,VALID,18.9334,VALID,21,VALID,1.23331,
2005-07-26, 02:10:01,VALID,918.664,VALID,0,VALID,100,VALID,0.0339617,VALID,18.9036,VALID,13,VALID,1.16907,
2005-07-26, 02:11:01,VALID,918.663,VALID,0,VALID,100,VALID,0.0169808,VALID,18.9202,VALID,23,VALID,1.31631,
2005-07-26, 02:12:01,VALID,918.663,VALID,0,VALID,100,VALID,0.0339617,VALID,18.9237,VALID,20,VALID,1.31722,
2005-07-26, 02:13:01,VALID,918.625,VALID,0,VALID,100,VALID,-0.0339617,VALID,18.8628,VALID,358,VALID,1.68229,
2005-07-26, 02:14:01,VALID,918.636,VALID,0,VALID,100,VALID,-0.101885,VALID,18.8509,VALID,1,VALID,1.18899,
2005-07-26, 02:15:01,VALID,918.624,VALID,0,VALID,100,VALID,-0.0849042,VALID,18.8213,VALID,6,VALID,0.892531,
2005-07-26, 02:16:01,VALID,918.608,VALID,0,VALID,100,VALID,-0.0509425,VALID,18.8181,VALID,22,VALID,1.17078,
2005-07-26, 02:17:01,VALID,918.589,VALID,0,VALID,100,VALID,-0.0509425,VALID,18.8015,VALID,16,VALID,1.21733,
2005-07-26, 02:18:01,VALID,918.554,VALID,0,VALID,100,VALID,-0.0679233,VALID,18.7953,VALID,16,VALID,1.21307,
2005-07-26, 02:19:01,VALID,918.532,VALID,0,VALID,100,VALID,-0.0849042,VALID,18.7734,VALID,2,VALID,1.08903,
2005-07-26, 02:20:01,VALID,918.505,VALID,0,VALID,100,VALID,-0.0509425,VALID,18.7637,VALID,15,VALID,1.19703,
2005-07-26, 02:21:01,VALID,918.493,VALID,0,VALID,100,VALID,-0.0679233,VALID,18.7505,VALID,9,VALID,1.12257,
2005-07-26, 02:22:01,VALID,918.481,VALID,0,VALID,100,VALID,-0.0679233,VALID,18.7307,VALID,10,VALID,1.41704,
2005-07-26, 02:23:01,VALID,918.46,VALID,0,VALID,100,VALID,-0.0509425,VALID,18.7249,VALID,11,VALID,1.09082,
2005-07-26, 02:24:01,VALID,918.429,VALID,0,VALID,100,VALID,-0.0169808,VALID,18.7056,VALID,12,VALID,1.05569,
2005-07-26, 02:25:01,VALID,918.437,VALID,0,VALID,100,VALID,-0.0679233,VALID,18.6857,VALID,346,VALID,0.678544,
2005-07-26, 02:26:00,VALID,918.419,VALID,0,VALID,100,VALID,-0.0849042,VALID,18.6795,VALID,325,VALID,0.276042,
2005-07-26, 02:27:00,VALID,918.395,VALID,0,VALID,100,VALID,-0.0849042,VALID,18.673,VALID,235,VALID,0.125545,
2005-07-26, 02:28:00,VALID,918.389,VALID,0,VALID,100,VALID,-0.0849042,VALID,18.6765,VALID,302,VALID,0.254764,
2005-07-26, 02:29:00,VALID,918.36,VALID,0,VALID,100,VALID,-0.0509425,VALID,18.683,VALID,327,VALID,0.111471,
2005-07-26, 02:30:00,VALID,918.339,VALID,0,VALID,100,VALID,-0.0849042,VALID,18.673,VALID,5,VALID,0.670201,
2005-07-26, 02:31:00,VALID,918.329,VALID,0,VALID,100,VALID,-0.0849042,VALID,18.6638,VALID,9,VALID,0.545313,
2005-07-26, 02:32:00,VALID,918.301,VALID,0,VALID,100,VALID,-0.0509425,VALID,18.6348,VALID,13,VALID,0.563672,
2005-07-26, 02:33:00,VALID,918.293,VALID,0,VALID,100,VALID,-0.0849042,VALID,18.6117,VALID,8,VALID,0.637074,
2005-07-26, 02:34:00,VALID,918.286,VALID,0,VALID,100,VALID,-0.0849042,VALID,18.6246,VALID,344,VALID,1.05264,
2005-07-26, 02:35:00,VALID,918.288,VALID,0,VALID,100,VALID,-0.0509425,VALID,18.6184,VALID,303,VALID,1.23666,
2005-07-26, 02:36:00,VALID,918.305,VALID,0,VALID,100,VALID,-0.0679233,VALID,18.5953,VALID,291,VALID,0.737043,
2005-07-26, 02:37:00,VALID,918.289,VALID,0,VALID,100,VALID,-0.0679233,VALID,18.5893,VALID,352,VALID,1.18229,
2005-07-26, 02:38:00,VALID,918.278,VALID,0,VALID,100,VALID,-0.0509425,VALID,18.5893,VALID,313,VALID,0.755996,
2005-07-26, 02:39:00,VALID,918.288,VALID,0,VALID,100,VALID,-0.0679233,VALID,18.5863,VALID,267,VALID,0.550442,
2005-07-26, 02:40:00,VALID,918.249,VALID,0,VALID,100,VALID,-0.101885,VALID,18.5767,VALID,342,VALID,0.685594,
2005-07-26, 02:41:00,VALID,918.241,VALID,0,VALID,100,VALID,-0.101885,VALID,18.5829,VALID,343,VALID,1.22988,
2005-07-26, 02:42:00,VALID,918.234,VALID,0,VALID,100,VALID,-0.0849042,VALID,18.5702,VALID,325,VALID,0.820858,
2005-07-26, 02:43:00,VALID,918.223,VALID,0,VALID,100,VALID,-0.101885,VALID,18.5734,VALID,332,VALID,0.707532,
2005-07-26, 02:44:00,VALID,918.223,VALID,0,VALID,100,VALID,-0.101885,VALID,18.5672,VALID,325,VALID,0.710771,
2005-07-26, 02:45:00,VALID,918.234,VALID,0,VALID,100,VALID,-0.0849042,VALID,18.5603,VALID,258,VALID,0.733259,
2005-07-26, 02:46:00,VALID,918.237,VALID,0,VALID,100,VALID,-0.0509425,VALID,18.5672,VALID,252,VALID,0.954427,
2005-07-26, 02:47:00,VALID,918.229,VALID,0,VALID,100,VALID,-0.101885,VALID,18.5541,VALID,328,VALID,0.647852,
2005-07-26, 02:48:00,VALID,918.233,VALID,0,VALID,100,VALID,-0.0849042,VALID,18.5769,VALID,318,VALID,0.800249,
2005-07-26, 02:49:00,VALID,918.229,VALID,0,VALID,100,VALID,-0.101885,VALID,18.5739,VALID,328,VALID,0.733232,
2005-07-26, 02:50:00,VALID,918.195,VALID,0,VALID,100,VALID,-0.101885,VALID,18.5702,VALID,359,VALID,1.79192,
2005-07-26, 02:51:00,VALID,918.172,VALID,0,VALID,100,VALID,-0.0509425,VALID,18.5796,VALID,358,VALID,1.52511,
2005-07-26, 02:52:00,VALID,918.152,VALID,0,VALID,100,VALID,-0.0849042,VALID,18.564,VALID,324,VALID,1.46112,
2005-07-26, 02:53:00,VALID,918.151,VALID,0,VALID,100,VALID,-0.101885,VALID,18.5635,VALID,322,VALID,0.818677,
2005-07-26, 02:54:00,VALID,918.169,VALID,0,VALID,100,VALID,-0.101885,VALID,18.5737,VALID,315,VALID,0.605129,
2005-07-26, 02:55:00,VALID,918.165,VALID,0,VALID,100,VALID,-0.0849042,VALID,18.5637,VALID,331,VALID,0.580469,
2005-07-26, 02:56:00,VALID,918.155,VALID,0,VALID,100,VALID,-0.0679233,VALID,18.5637,VALID,348,VALID,0.929861,
2005-07-26, 02:57:00,VALID,918.162,VALID,0,VALID,100,VALID,-0.0849042,VALID,18.5573,VALID,356,VALID,1.01004,
2005-07-26, 02:58:00,VALID,918.161,VALID,0,VALID,100,VALID,0,VALID,18.5497,VALID,356,VALID,1.20852,
2005-07-26, 02:59:00,VALID,918.16,VALID,0,VALID,100,VALID,0.0679233,VALID,18.5462,VALID,360,VALID,0.831174,
2005-07-26, 03:00:00,VALID,918.169,VALID,0,VALID,100,VALID,0,VALID,18.5499,VALID,6,VALID,0.895508,
2005-07-26, 03:01:00,VALID,918.163,VALID,0,VALID,100,VALID,0,VALID,18.5494,VALID,11,VALID,1.49104,
2005-07-26, 03:02:00,VALID,918.184,VALID,0,VALID,100,VALID,0.0509425,VALID,18.5397,VALID,2,VALID,1.53452,
2005-07-26, 03:03:00,VALID,918.206,VALID,0,VALID,100,VALID,0.0169808,VALID,18.5402,VALID,344,VALID,0.867188,
2005-07-26, 03:04:00,VALID,918.206,VALID,0,VALID,100,VALID,0.0339617,VALID,18.543,VALID,2,VALID,0.826522,
2005-07-26, 03:05:00,VALID,918.21,VALID,0,VALID,100,VALID,0.0169808,VALID,18.5561,VALID,355,VALID,0.331577,
2005-07-26, 03:06:00,VALID,918.21,VALID,0,VALID,100,VALID,0.0169808,VALID,18.5559,VALID,355,VALID,0.0422247,
2005-07-26, 03:07:00,VALID,918.216,VALID,0,VALID,100,VALID,0,VALID,18.5723,VALID,284,VALID,0.549055,
2005-07-26, 03:08:00,VALID,918.221,VALID,0,VALID,100,VALID,0.0339617,VALID,18.5656,VALID,268,VALID,0.329078,
2005-07-26, 03:09:00,VALID,918.224,VALID,0,VALID,100,VALID,0.0679233,VALID,18.5589,VALID,300,VALID,0.466712,
2005-07-26, 03:10:00,VALID,918.235,VALID,0,VALID,100,VALID,0.0339617,VALID,18.5591,VALID,350,VALID,1.02598,
2005-07-26, 03:11:00,VALID,918.238,VALID,0,VALID,100,VALID,0.0679233,VALID,18.5497,VALID,327,VALID,1.20603,
2005-07-26, 03:12:00,VALID,918.248,VALID,0,VALID,100,VALID,0.0509425,VALID,18.5462,VALID,313,VALID,0.748785,
2005-07-26, 03:13:00,VALID,918.228,VALID,0,VALID,100,VALID,0.0169808,VALID,18.5494,VALID,311,VALID,0.252477,
2005-07-26, 03:14:00,VALID,918.214,VALID,0,VALID,100,VALID,0,VALID,18.5665,VALID,311,VALID,0.335938,
2005-07-26, 03:15:00,VALID,918.211,VALID,0,VALID,100,VALID,0.0339617,VALID,18.5723,VALID,311,VALID,0.233994,
2005-07-26, 03:16:00,VALID,918.185,VALID,0,VALID,100,VALID,0.0169808,VALID,18.5856,VALID,333,VALID,0.364583,
2005-07-26, 03:17:00,VALID,918.188,VALID,0,VALID,100,VALID,0,VALID,18.5688,VALID,346,VALID,0.360677,
2005-07-26, 03:18:00,VALID,918.184,VALID,0,VALID,100,VALID,0.0169808,VALID,18.566,VALID,353,VALID,0.484557,
2005-07-26, 03:19:00,VALID,918.186,VALID,0,VALID,100,VALID,0,VALID,18.5335,VALID,332,VALID,0.593945,
2005-07-26, 03:20:00,VALID,918.189,VALID,0,VALID,100,VALID,0,VALID,18.5372,VALID,301,VALID,0.251524,
2005-07-26, 03:21:00,VALID,918.188,VALID,0,VALID,100,VALID,0.0169808,VALID,18.5407,VALID,301,VALID,0.143532,
2005-07-26, 03:22:00,VALID,918.179,VALID,0,VALID,100,VALID,0,VALID,18.5372,VALID,301,VALID,0,
2005-07-26, 03:23:00,VALID,918.193,VALID,0,VALID,100,VALID,0.0169808,VALID,18.5305,VALID,301,VALID,0.12965,
2005-07-26, 03:24:00,VALID,918.195,VALID,0,VALID,100,VALID,0,VALID,18.5372,VALID,301,VALID,0.0963542,
2005-07-26, 03:25:00,VALID,918.194,VALID,0,VALID,100,VALID,0,VALID,18.5208,VALID,325,VALID,0.428977,
2005-07-26, 03:26:00,VALID,918.178,VALID,0,VALID,100,VALID,0,VALID,18.5282,VALID,344,VALID,0.264881,
2005-07-26, 03:27:00,VALID,918.189,VALID,0,VALID,100,VALID,-0.0169808,VALID,18.5144,VALID,330,VALID,0.359933,
2005-07-26, 03:28:00,VALID,918.208,VALID,0,VALID,100,VALID,0,VALID,18.5238,VALID,307,VALID,0.752858,
2005-07-26, 03:29:00,VALID,918.216,VALID,0,VALID,100,VALID,-0.0169808,VALID,18.5342,VALID,316,VALID,0.557977,
2005-07-26, 03:30:00,VALID,918.199,VALID,0,VALID,100,VALID,0,VALID,18.5082,VALID,322,VALID,0.275534,
2005-07-26, 03:31:00,VALID,918.198,VALID,0,VALID,100,VALID,0,VALID,18.5273,VALID,349,VALID,0.512536,
2005-07-26, 03:32:00,VALID,918.197,VALID,0,VALID,100,VALID,0,VALID,18.5471,VALID,349,VALID,0.219113,
2005-07-26, 03:33:00,VALID,918.198,VALID,0,VALID,100,VALID,0.0169808,VALID,18.5305,VALID,349,VALID,0.232088,
2005-07-26, 03:34:00,VALID,918.201,VALID,0,VALID,100,VALID,0,VALID,18.5337,VALID,349,VALID,0.027798,
2005-07-26, 03:35:00,VALID,918.208,VALID,0,VALID,100,VALID,0.0509425,VALID,18.5273,VALID,343,VALID,0.418341,
2005-07-26, 03:36:00,VALID,918.217,VALID,0,VALID,100,VALID,0,VALID,18.5015,VALID,338,VALID,0.56529,
2005-07-26, 03:37:00,VALID,918.225,VALID,0,VALID,100,VALID,0,VALID,18.4915,VALID,338,VALID,0.520633,
2005-07-26, 03:38:00,VALID,918.204,VALID,0,VALID,100,VALID,0,VALID,18.4851,VALID,322,VALID,0.43936,
2005-07-26, 03:39:00,VALID,918.202,VALID,0,VALID,99.9977,VALID,0.0169808,VALID,18.4989,VALID,323,VALID,0.141335,
2005-07-26, 03:40:00,VALID,918.212,VALID,0,VALID,99.9346,VALID,0.0169808,VALID,18.492,VALID,344,VALID,0.852865,